EW9624 Weather Reports


Display with metric or nautical units.
time (UTC)temp
F
wind
direction
speed
MPH
gust
MPH
rain 1hr
in
rain 24hr
in
rain mn
in
humidity
%
barometer
mb
20201031230230 51 180 0.0 0.0 0.00 0.00 0.00 61 1023.6
20201031225233 51 180 0.0 0.0 0.00 0.00 0.00 60 1023.7
20201031224323 52 180 0.0 0.0 0.00 0.00 0.00 59 1023.8
20201031223338 53 180 0.0 0.0 0.00 0.00 0.00 57 1024.0
20201031222327 53 180 0.0 0.0 0.00 0.00 0.00 56 1023.9
20201031221425 54 180 0.0 0.0 0.00 0.00 0.00 54 1024.2
20201031220527 54 180 0.0 0.0 0.00 0.00 0.00 52 1024.1
20201031215531 55 180 0.0 0.0 0.00 0.00 0.00 52 1024.1
20201031214533 55 180 0.0 0.0 0.00 0.00 0.00 52 1024.3
20201031214427 55 180 0.0 0.0 0.00 0.00 0.00 51 1024.1
20201031213427 55 180 0.0 0.0 0.00 0.00 0.00 51 1024.3
20201031212427 55 180 0.0 0.0 0.00 0.00 0.00 50 1024.4
20201031211433 55 180 0.0 0.0 0.00 0.00 0.00 50 1024.7
20201031210433 56 180 0.0 0.0 0.00 0.00 0.00 49 1024.8
20201031205433 56 180 0.0 0.0 0.00 0.00 0.00 49 1025.0
20201031204425 56 180 0.0 0.0 0.00 0.00 0.00 50 1025.2
20201031203426 56 180 0.0 0.0 0.00 0.00 0.00 50 1025.1
20201031202431 55 180 0.0 0.0 0.00 0.00 0.00 50 1025.2
20201031201426 55 180 0.0 0.0 0.00 0.00 0.00 50 1025.3
20201031200441 54 180 0.0 0.0 0.00 0.00 0.00 51 1025.7
20201031195424 55 180 0.0 0.0 0.00 0.00 0.00 50 1026.0
20201031194437 55 180 0.0 0.0 0.00 0.00 0.00 51 1026.2
20201031193530 55 180 0.0 0.0 0.00 0.00 0.00 50 1026.4
20201031192527 54 180 0.0 0.0 0.00 0.00 0.00 51 1026.6
20201031191627 54 180 0.0 0.0 0.00 0.00 0.00 51 1026.7
20201031190723 54 180 0.0 0.0 0.00 0.00 0.00 51 1026.9
20201031185740 53 180 0.0 0.0 0.00 0.00 0.00 51 1027.2
20201031184829 53 180 0.0 0.0 0.00 0.00 0.00 52 1027.2
20201031183826 54 180 0.0 0.0 0.00 0.00 0.00 52 1027.4
20201031182830 53 180 0.0 0.0 0.00 0.00 0.00 51 1027.7
20201031181831 52 180 0.0 0.0 0.00 0.00 0.00 53 1027.8
20201031180837 53 180 0.0 0.0 0.00 0.00 0.00 53 1028.1
20201031175934 52 180 0.0 0.0 0.00 0.00 0.00 54 1028.3
20201031174929 51 180 0.0 0.0 0.00 0.00 0.00 55 1028.2
20201031173925 51 180 0.0 0.0 0.00 0.00 0.00 55 1028.7
20201031172935 51 180 0.0 0.0 0.00 0.00 0.00 56 1028.9
20201031171929 51 180 0.0 0.0 0.00 0.00 0.00 56 1029.0
20201031171833 50 180 0.0 0.0 0.00 0.00 0.00 55 1029.0
20201031170927 50 180 0.0 0.0 0.00 0.00 0.00 56 1029.2
20201031165931 50 180 0.0 0.0 0.00 0.00 0.00 56 1029.7
20201031164926 49 180 0.0 0.0 0.00 0.00 0.00 57 1029.7
20201031164025 49 180 0.0 0.0 0.00 0.00 0.00 56 1030.2
20201031163050 49 180 0.0 0.0 0.00 0.00 0.00 56 1030.3
20201031162028 49 180 0.0 0.0 0.00 0.00 0.00 57 1030.2
20201031161035 49 180 0.0 0.0 0.00 0.00 0.00 58 1030.3
20201031160059 49 180 0.0 0.0 0.00 0.00 0.00 58 1030.4
20201031155034 48 180 0.0 0.0 0.00 0.00 0.00 59 1030.3
20201031154038 47 180 0.0 0.0 0.00 0.00 0.00 60 1030.5
20201031153035 47 180 0.0 0.0 0.00 0.00 0.00 60 1030.5
20201031152127 46 180 0.0 0.0 0.00 0.00 0.00 60 1030.5
20201031151127 46 180 0.0 0.0 0.00 0.00 0.00 62 1030.6
20201031150227 45 180 0.0 0.0 0.00 0.00 0.00 62 1030.8
20201031145236 44 180 0.0 0.0 0.00 0.00 0.00 65 1031.0
20201031144224 44 180 0.0 0.0 0.00 0.00 0.00 68 1031.0
20201031143249 43 180 0.0 0.0 0.00 0.00 0.00 69 1031.0
20201031142235 42 180 0.0 0.0 0.00 0.00 0.00 71 1030.9
20201031141228 40 180 0.0 0.0 0.00 0.00 0.00 73 1031.0
20201031140226 39 180 0.0 0.0 0.00 0.00 0.00 74 1031.0
20201031135226 38 180 0.0 0.0 0.00 0.00 0.00 77 1031.0
20201031134226 37 180 0.0 0.0 0.00 0.00 0.00 78 1030.8
20201031133333 37 180 0.0 0.0 0.00 0.00 0.00 79 1031.0
20201031132336 35 180 0.0 0.0 0.00 0.00 0.00 82 1030.7
20201031131325 34 180 0.0 0.0 0.00 0.00 0.00 86 1030.8
20201031130333 33 180 0.0 0.0 0.00 0.00 0.00 88 1030.8
20201031125328 32 180 0.0 0.0 0.00 0.00 0.00 88 1030.8
20201031124333 32 180 0.0 0.0 0.00 0.00 0.00 90 1030.7
20201031123421 31 180 0.0 0.0 0.00 0.00 0.00 92 1030.6
20201031122426 30 180 0.0 0.0 0.00 0.00 0.00 92 1030.7
20201031121437 30 180 0.0 0.0 0.00 0.00 0.00 94 1030.6
20201031120426 30 180 0.0 0.0 0.00 0.00 0.00 93 1030.8
20201031115524 30 180 0.0 0.0 0.00 0.00 0.00 92 1030.8
20201031114528 30 180 0.0 0.0 0.00 0.00 0.00 92 1030.6
20201031113633 31 180 0.0 0.0 0.00 0.00 0.00 90 1030.9
20201031112628 31 180 0.0 0.0 0.00 0.00 0.00 91 1030.9
20201031111728 31 180 0.0 0.0 0.00 0.00 0.00 90 1030.8
20201031110727 31 180 0.0 0.0 0.00 0.00 0.00 90 1030.8
20201031105825 31 180 0.0 0.0 0.00 0.00 0.00 90 1030.8
20201031104829 31 180 0.0 0.0 0.00 0.00 0.00 91 1030.8
20201031103826 31 180 0.0 0.0 0.00 0.00 0.00 91 1030.6
20201031102922 31 180 0.0 0.0 0.00 0.00 0.00 91 1030.6
20201031101926 31 180 0.0 0.0 0.00 0.00 0.00 90 1030.5
20201031100924 31 180 0.0 0.0 0.00 0.00 0.00 90 1030.5
20201031095927 32 180 0.0 0.0 0.00 0.00 0.00 88 1030.5
20201031094925 32 180 0.0 0.0 0.00 0.00 0.00 89 1030.3
20201031093947 32 180 0.0 0.0 0.00 0.00 0.00 87 1030.2
20201031092925 32 180 0.0 0.0 0.00 0.00 0.00 87 1030.2
20201031091925 33 180 0.0 0.0 0.00 0.00 0.00 88 1030.1
20201031090927 33 180 0.0 0.0 0.00 0.00 0.00 86 1030.1
20201031085928 33 180 0.0 0.0 0.00 0.00 0.00 87 1030.0
20201031084946 33 180 0.0 0.0 0.00 0.00 0.00 87 1029.8
20201031083926 33 180 0.0 0.0 0.00 0.00 0.00 86 1029.7
20201031082947 33 180 0.0 0.0 0.00 0.00 0.00 87 1029.8
20201031081927 33 180 0.0 0.0 0.00 0.00 0.00 87 1029.6
20201031080928 34 180 0.0 0.0 0.00 0.00 0.00 88 1029.6
20201031075951 33 180 0.0 0.0 0.00 0.00 0.00 88 1029.6
20201031075026 34 180 0.0 0.0 0.00 0.00 0.00 88 1029.6
20201031074028 34 180 0.0 0.0 0.00 0.00 0.00 87 1029.7
20201031073037 34 180 0.0 0.0 0.00 0.00 0.00 88 1029.6
20201031072028 34 180 0.0 0.0 0.00 0.00 0.00 88 1029.6
20201031071029 34 180 0.0 0.0 0.00 0.00 0.00 88 1029.6
20201031070124 34 180 0.0 0.0 0.00 0.00 0.00 88 1029.5
20201031065127 34 180 0.0 0.0 0.00 0.00 0.00 89 1029.6
20201031064158 34 180 0.0 0.0 0.00 0.00 0.00 90 1029.7
20201031063231 34 180 0.0 0.0 0.00 0.00 0.00 89 1029.6
20201031062324 34 180 0.0 0.0 0.00 0.00 0.00 90 1029.7
20201031061326 34 180 0.0 0.0 0.00 0.00 0.00 90 1029.6
20201031060326 35 180 0.0 0.0 0.00 0.00 0.00 89 1029.7
20201031055424 35 180 0.0 0.0 0.00 0.00 0.00 90 1029.5
20201031054425 35 180 0.0 0.0 0.00 0.00 0.00 89 1029.5
20201031053443 35 180 0.0 0.0 0.00 0.00 0.00 91 1029.5
20201031052437 35 180 0.0 0.0 0.00 0.00 0.00 91 1029.5
20201031051440 35 180 0.0 0.0 0.00 0.00 0.00 91 1029.6
20201031050523 35 180 0.0 0.0 0.00 0.00 0.00 92 1029.5
20201031045527 35 180 0.0 0.0 0.00 0.00 0.00 91 1029.4
20201031044534 35 180 0.0 0.0 0.00 0.00 0.00 91 1029.3
20201031043539 35 180 0.0 0.0 0.00 0.00 0.00 91 1029.4
20201031042623 35 180 0.0 0.0 0.00 0.00 0.00 90 1029.4
20201031041641 36 180 0.0 0.0 0.00 0.00 0.00 89 1029.4
20201031041525 36 180 0.0 0.0 0.00 0.00 0.00 88 1029.3
20201031040527 36 180 0.0 0.0 0.00 0.00 0.00 88 1029.4
20201030235930 43 180 0.0 0.0 0.00 0.00 0.00 66 1027.8
20201030234930 43 180 0.0 0.0 0.00 0.00 0.00 67 1027.8
20201030233936 44 180 0.0 0.0 0.00 0.00 0.00 66 1027.6
20201030232929 44 180 0.0 0.0 0.00 0.00 0.00 64 1027.5
20201030232829 44 180 0.0 0.0 0.00 0.00 0.00 64 1027.5
20201030231831 44 180 0.0 0.0 0.00 0.00 0.00 64 1027.3
20201030230831 44 180 0.0 0.0 0.00 0.00 0.00 63 1027.2